Year,Month,Day,Hour,Minute,Value (Times are PST for temperature in C)
2020,04,13,00,00,2.80
2020,04,13,00,01,2.80
2020,04,13,00,02,2.80
2020,04,13,00,03,2.80
2020,04,13,00,04,2.80
2020,04,13,00,05,2.80
2020,04,13,00,06,2.80
2020,04,13,00,07,2.80
2020,04,13,00,08,2.80
2020,04,13,00,09,2.80
2020,04,13,00,10,2.80
2020,04,13,00,11,2.70
2020,04,13,00,12,2.70
2020,04,13,00,13,2.70
2020,04,13,00,14,2.70
2020,04,13,00,15,2.70
2020,04,13,00,16,2.70
2020,04,13,00,17,2.70
2020,04,13,00,18,2.70
2020,04,13,00,19,2.70
2020,04,13,00,20,2.70
2020,04,13,00,21,2.70
2020,04,13,00,22,2.60
2020,04,13,00,23,2.60
2020,04,13,00,24,2.60
2020,04,13,00,25,2.60
2020,04,13,00,26,2.60
2020,04,13,00,27,2.60
2020,04,13,00,28,2.60
2020,04,13,00,29,2.60
2020,04,13,00,30,2.50
2020,04,13,00,31,2.50
2020,04,13,00,32,2.50
2020,04,13,00,33,2.50
2020,04,13,00,34,2.50
2020,04,13,00,35,2.50
2020,04,13,00,36,2.50
2020,04,13,00,37,2.50
2020,04,13,00,38,2.50
2020,04,13,00,39,2.50
2020,04,13,00,40,2.50
2020,04,13,00,41,2.60
2020,04,13,00,42,2.60
2020,04,13,00,43,2.60
2020,04,13,00,44,2.60
2020,04,13,00,45,2.60
2020,04,13,00,46,2.60
2020,04,13,00,47,2.60
2020,04,13,00,48,2.60
2020,04,13,00,49,2.60
2020,04,13,00,50,2.60
2020,04,13,00,51,2.50
2020,04,13,00,52,2.50
2020,04,13,00,53,2.50
2020,04,13,00,54,2.50
2020,04,13,00,55,2.50
2020,04,13,00,56,2.50
2020,04,13,00,57,2.50
2020,04,13,00,58,2.50
2020,04,13,00,59,2.50
2020,04,13,01,00,2.50
2020,04,13,01,01,2.50
2020,04,13,01,02,2.40
2020,04,13,01,03,2.40
2020,04,13,01,04,2.40
2020,04,13,01,05,2.40
2020,04,13,01,06,2.40
2020,04,13,01,07,2.40
2020,04,13,01,08,2.40
2020,04,13,01,09,2.40
2020,04,13,01,10,2.40
2020,04,13,01,11,2.30
2020,04,13,01,12,2.30
2020,04,13,01,13,2.30
2020,04,13,01,14,2.30
2020,04,13,01,15,2.30
2020,04,13,01,16,2.30
2020,04,13,01,17,2.30
2020,04,13,01,18,2.30
2020,04,13,01,19,2.30
2020,04,13,01,20,2.30
2020,04,13,01,21,2.30
2020,04,13,01,22,2.30
2020,04,13,01,23,2.30
2020,04,13,01,24,2.30
2020,04,13,01,25,2.30
2020,04,13,01,26,2.30
2020,04,13,01,27,2.30
2020,04,13,01,28,2.40
2020,04,13,01,29,2.40
2020,04,13,01,30,2.50
2020,04,13,01,31,2.50
2020,04,13,01,32,2.60
2020,04,13,01,33,2.60
2020,04,13,01,34,2.60
2020,04,13,01,35,2.60
2020,04,13,01,36,2.60
2020,04,13,01,37,2.60
2020,04,13,01,38,2.60
2020,04,13,01,39,2.60
2020,04,13,01,40,2.60
2020,04,13,01,41,2.60
2020,04,13,01,42,2.60
2020,04,13,01,43,2.50
2020,04,13,01,44,2.50
2020,04,13,01,45,2.40
2020,04,13,01,46,2.40
2020,04,13,01,47,2.40
2020,04,13,01,48,2.30
2020,04,13,01,49,2.30
2020,04,13,01,50,2.30
2020,04,13,01,51,2.30
2020,04,13,01,52,2.30
2020,04,13,01,53,2.30
2020,04,13,01,54,2.30
2020,04,13,01,55,2.30
2020,04,13,01,56,2.30
2020,04,13,01,57,2.30
2020,04,13,01,58,2.30
2020,04,13,01,59,2.20
2020,04,13,02,00,2.20
2020,04,13,02,01,2.20
2020,04,13,02,02,2.20
2020,04,13,02,03,2.20
2020,04,13,02,04,2.20
2020,04,13,02,05,2.10
2020,04,13,02,06,2.10
2020,04,13,02,07,2.10
2020,04,13,02,08,2.10
2020,04,13,02,09,2.10
2020,04,13,02,10,2.00
2020,04,13,02,11,2.00
2020,04,13,02,12,2.00
2020,04,13,02,13,2.00
2020,04,13,02,14,1.90
2020,04,13,02,15,1.90
2020,04,13,02,16,1.90
2020,04,13,02,17,1.90
2020,04,13,02,18,2.00
2020,04,13,02,19,2.00
2020,04,13,02,20,2.10
2020,04,13,02,21,2.10
2020,04,13,02,22,2.10
2020,04,13,02,23,2.20
2020,04,13,02,24,2.20
2020,04,13,02,25,2.20
2020,04,13,02,26,2.20
2020,04,13,02,27,2.30
2020,04,13,02,28,2.30
2020,04,13,02,29,2.30
2020,04,13,02,30,2.30
2020,04,13,02,31,2.40
2020,04,13,02,32,2.30
2020,04,13,02,33,2.30
2020,04,13,02,34,2.30
2020,04,13,02,35,2.30
2020,04,13,02,36,2.30
2020,04,13,02,37,2.30
2020,04,13,02,38,2.20
2020,04,13,02,39,2.20
2020,04,13,02,40,2.20
2020,04,13,02,41,2.20
2020,04,13,02,42,2.20
2020,04,13,02,43,2.10
2020,04,13,02,44,2.10
2020,04,13,02,45,2.10
2020,04,13,02,46,2.10
2020,04,13,02,47,2.10
2020,04,13,02,48,2.10
2020,04,13,02,49,2.10
2020,04,13,02,50,2.10
2020,04,13,02,51,2.10
2020,04,13,02,52,2.10
2020,04,13,02,53,2.10
2020,04,13,02,54,2.10
2020,04,13,02,55,2.10
2020,04,13,02,56,2.10
2020,04,13,02,57,2.10
2020,04,13,02,58,2.10
2020,04,13,02,59,2.10
2020,04,13,03,00,2.10
2020,04,13,03,01,2.20
2020,04,13,03,02,2.20
2020,04,13,03,03,2.20
2020,04,13,03,04,2.20
2020,04,13,03,05,2.20
2020,04,13,03,06,2.20
2020,04,13,03,07,2.20
2020,04,13,03,08,2.20
2020,04,13,03,09,2.20
2020,04,13,03,10,2.30
2020,04,13,03,11,2.30
2020,04,13,03,12,2.30
2020,04,13,03,13,2.30
2020,04,13,03,14,2.30
2020,04,13,03,15,2.30
2020,04,13,03,16,2.30
2020,04,13,03,17,2.30
2020,04,13,03,18,2.30
2020,04,13,03,19,2.30
2020,04,13,03,20,2.20
2020,04,13,03,21,2.20
2020,04,13,03,22,2.20
2020,04,13,03,23,2.20
2020,04,13,03,24,2.20
2020,04,13,03,25,2.20
2020,04,13,03,26,2.20
2020,04,13,03,27,2.20
2020,04,13,03,28,2.20
2020,04,13,03,29,2.20
2020,04,13,03,30,2.20
2020,04,13,03,31,2.20
2020,04,13,03,32,2.20
2020,04,13,03,33,2.20
2020,04,13,03,34,2.20
2020,04,13,03,35,2.20
2020,04,13,03,36,2.20
2020,04,13,03,37,2.20
2020,04,13,03,38,2.20
2020,04,13,03,39,2.20
2020,04,13,03,40,2.10
2020,04,13,03,41,2.10
2020,04,13,03,42,2.10
2020,04,13,03,43,2.10
2020,04,13,03,44,2.10
2020,04,13,03,45,2.00
2020,04,13,03,46,2.00
2020,04,13,03,47,1.90
2020,04,13,03,48,1.90
2020,04,13,03,49,1.90
2020,04,13,03,50,1.90
2020,04,13,03,51,1.90
2020,04,13,03,52,1.90
2020,04,13,03,53,1.90
2020,04,13,03,54,1.90
2020,04,13,03,55,1.90
2020,04,13,03,56,1.80
2020,04,13,03,57,1.90
2020,04,13,03,58,1.90
2020,04,13,03,59,1.90
2020,04,13,04,00,1.90
2020,04,13,04,01,1.90
2020,04,13,04,02,1.90
2020,04,13,04,03,1.90
2020,04,13,04,04,1.90
2020,04,13,04,05,1.80
2020,04,13,04,06,1.80
2020,04,13,04,07,1.80
2020,04,13,04,08,1.80
2020,04,13,04,09,1.70
2020,04,13,04,10,1.70
2020,04,13,04,11,1.70
2020,04,13,04,12,1.70
2020,04,13,04,13,1.70
2020,04,13,04,14,1.70
2020,04,13,04,15,1.70
2020,04,13,04,16,1.70
2020,04,13,04,17,1.70
2020,04,13,04,18,1.80
2020,04,13,04,19,1.80
2020,04,13,04,20,1.80
2020,04,13,04,21,1.80
2020,04,13,04,22,1.80
2020,04,13,04,23,1.90
2020,04,13,04,24,1.90
2020,04,13,04,25,1.90
2020,04,13,04,26,1.90
2020,04,13,04,27,1.80
2020,04,13,04,28,1.80
2020,04,13,04,29,1.80
2020,04,13,04,30,1.80
2020,04,13,04,31,1.80
2020,04,13,04,32,1.80
2020,04,13,04,33,1.80
2020,04,13,04,34,1.80
2020,04,13,04,35,1.70
2020,04,13,04,36,1.80
2020,04,13,04,37,1.80
2020,04,13,04,38,1.80
2020,04,13,04,39,1.80
2020,04,13,04,40,1.80
2020,04,13,04,41,1.80
2020,04,13,04,42,1.80
2020,04,13,04,43,1.80
2020,04,13,04,44,1.80
2020,04,13,04,45,1.80
2020,04,13,04,46,1.80
2020,04,13,04,47,1.80
2020,04,13,04,48,1.80
2020,04,13,04,49,1.80
2020,04,13,04,50,1.80
2020,04,13,04,51,1.80
2020,04,13,04,52,1.80
2020,04,13,04,53,1.80
2020,04,13,04,54,1.80
2020,04,13,04,55,1.70
2020,04,13,04,56,1.70
2020,04,13,04,57,1.70
2020,04,13,04,58,1.70
2020,04,13,04,59,1.70
2020,04,13,05,00,1.70
2020,04,13,05,01,1.70
2020,04,13,05,02,1.70
2020,04,13,05,03,1.70
2020,04,13,05,04,1.70
2020,04,13,05,05,1.60
2020,04,13,05,06,1.60
2020,04,13,05,07,1.60
2020,04,13,05,08,1.60
2020,04,13,05,09,1.60
2020,04,13,05,10,1.60
2020,04,13,05,11,1.60
2020,04,13,05,12,1.60
2020,04,13,05,13,1.60
2020,04,13,05,14,1.60
2020,04,13,05,15,1.60
2020,04,13,05,16,1.50
2020,04,13,05,17,1.50
2020,04,13,05,18,1.50
2020,04,13,05,19,1.50
2020,04,13,05,20,1.60
2020,04,13,05,21,1.60
2020,04,13,05,22,1.60
2020,04,13,05,23,1.60
2020,04,13,05,24,1.60
2020,04,13,05,25,1.70
2020,04,13,05,26,1.70
2020,04,13,05,27,1.70
2020,04,13,05,28,1.70
2020,04,13,05,29,1.60
2020,04,13,05,30,1.60
2020,04,13,05,31,1.60
2020,04,13,05,32,1.60
2020,04,13,05,33,1.70
2020,04,13,05,34,1.70
2020,04,13,05,35,1.60
2020,04,13,05,36,1.60
2020,04,13,05,37,1.60
2020,04,13,05,38,1.60
2020,04,13,05,39,1.60
2020,04,13,05,40,1.60
2020,04,13,05,41,1.60
2020,04,13,05,42,1.60
2020,04,13,05,43,1.60
2020,04,13,05,44,1.50
2020,04,13,05,45,1.50
2020,04,13,05,46,1.50
2020,04,13,05,47,1.50
2020,04,13,05,48,1.40
2020,04,13,05,49,1.40
2020,04,13,05,50,1.40
2020,04,13,05,51,1.30
2020,04,13,05,52,1.30
2020,04,13,05,53,1.30
2020,04,13,05,54,1.30
2020,04,13,05,55,1.30
2020,04,13,05,56,1.30
2020,04,13,05,57,1.30
2020,04,13,05,58,1.20
2020,04,13,05,59,1.20
2020,04,13,06,00,1.20
2020,04,13,06,01,1.20
2020,04,13,06,02,1.20
2020,04,13,06,03,1.20
2020,04,13,06,04,1.20
2020,04,13,06,05,1.20
2020,04,13,06,06,1.20
2020,04,13,06,07,1.20
2020,04,13,06,08,1.20
2020,04,13,06,09,1.20
2020,04,13,06,10,1.20
2020,04,13,06,11,1.20
2020,04,13,06,12,1.20
2020,04,13,06,13,1.20
2020,04,13,06,14,1.20
2020,04,13,06,15,1.10
2020,04,13,06,16,1.10
2020,04,13,06,17,1.10
2020,04,13,06,18,1.10
2020,04,13,06,19,1.10
2020,04,13,06,20,1.10
2020,04,13,06,21,1.10
2020,04,13,06,22,1.00
2020,04,13,06,23,1.00
2020,04,13,06,24,1.00
2020,04,13,06,25,1.00
2020,04,13,06,26,0.90
2020,04,13,06,27,0.90
2020,04,13,06,28,0.90
2020,04,13,06,29,0.90
2020,04,13,06,30,0.80
2020,04,13,06,31,0.80
2020,04,13,06,32,0.80
2020,04,13,06,33,0.80
2020,04,13,06,34,0.80
2020,04,13,06,35,0.70
2020,04,13,06,36,0.70
2020,04,13,06,37,0.70
2020,04,13,06,38,0.70
2020,04,13,06,39,0.70
2020,04,13,06,40,0.70
2020,04,13,06,41,0.70
2020,04,13,06,42,0.70
2020,04,13,06,43,0.70
2020,04,13,06,44,0.70
2020,04,13,06,45,0.70
2020,04,13,06,46,0.70
2020,04,13,06,47,0.70
2020,04,13,06,48,0.70
2020,04,13,06,49,0.70
2020,04,13,06,50,0.70
2020,04,13,06,51,0.70
2020,04,13,06,52,0.70
2020,04,13,06,53,0.70
2020,04,13,06,54,0.70
2020,04,13,06,55,0.70
2020,04,13,06,56,0.70
2020,04,13,06,57,0.70
2020,04,13,06,58,0.70
2020,04,13,06,59,0.70
2020,04,13,07,00,0.70
2020,04,13,07,01,0.70
2020,04,13,07,02,0.70
2020,04,13,07,03,0.70
2020,04,13,07,04,0.80
2020,04,13,07,05,0.80
2020,04,13,07,06,0.80
2020,04,13,07,07,0.80
2020,04,13,07,08,0.80
2020,04,13,07,09,0.80
2020,04,13,07,10,0.80
2020,04,13,07,11,0.80
2020,04,13,07,12,0.90
2020,04,13,07,13,0.90
2020,04,13,07,14,0.90
2020,04,13,07,15,0.90
2020,04,13,07,16,0.90
2020,04,13,07,17,0.90
2020,04,13,07,18,0.90
2020,04,13,07,19,0.90
2020,04,13,07,20,1.00
2020,04,13,07,21,1.00
2020,04,13,07,22,1.10
2020,04,13,07,23,1.10
2020,04,13,07,24,1.20
2020,04,13,07,25,1.20
2020,04,13,07,26,1.30
2020,04,13,07,27,1.40
2020,04,13,07,28,1.50
2020,04,13,07,29,1.60
2020,04,13,07,30,1.70
2020,04,13,07,31,1.80
2020,04,13,07,32,1.90
2020,04,13,07,33,2.00
2020,04,13,07,34,2.10
2020,04,13,07,35,2.20
2020,04,13,07,36,2.30
2020,04,13,07,37,2.40
2020,04,13,07,38,2.50
2020,04,13,07,39,2.60
2020,04,13,07,40,2.80
2020,04,13,07,41,2.90
2020,04,13,07,42,3.10
2020,04,13,07,43,3.20
2020,04,13,07,44,3.40
2020,04,13,07,45,3.50
2020,04,13,07,46,3.70
2020,04,13,07,47,3.80
2020,04,13,07,48,3.90
2020,04,13,07,49,4.00
2020,04,13,07,50,4.10
2020,04,13,07,51,4.30
2020,04,13,07,52,4.40
2020,04,13,07,53,4.60
2020,04,13,07,54,4.70
2020,04,13,07,55,4.90
2020,04,13,07,56,5.10
2020,04,13,07,57,5.20
2020,04,13,07,58,5.30
2020,04,13,07,59,5.50
2020,04,13,08,00,5.60
2020,04,13,08,01,5.70
2020,04,13,08,02,5.70
2020,04,13,08,03,5.70
2020,04,13,08,04,5.80
2020,04,13,08,05,5.80
2020,04,13,08,06,5.90
2020,04,13,08,07,6.00
2020,04,13,08,08,6.10
2020,04,13,08,09,6.20
2020,04,13,08,10,6.30
2020,04,13,08,11,6.40
2020,04,13,08,12,6.50
2020,04,13,08,13,6.70
2020,04,13,08,14,6.80
2020,04,13,08,15,7.00
2020,04,13,08,16,7.00
2020,04,13,08,17,7.10
2020,04,13,08,18,7.20
2020,04,13,08,19,7.30
2020,04,13,08,20,7.40
2020,04,13,08,21,7.50
2020,04,13,08,22,7.60
2020,04,13,08,23,7.70
2020,04,13,08,24,7.80
2020,04,13,08,25,8.00
2020,04,13,08,26,8.10
2020,04,13,08,27,8.20
2020,04,13,08,28,8.30
2020,04,13,08,29,8.40
2020,04,13,08,30,8.50
2020,04,13,08,31,8.60
2020,04,13,08,32,8.70
2020,04,13,08,33,8.80
2020,04,13,08,34,8.90
2020,04,13,08,35,9.00
2020,04,13,08,36,9.10
2020,04,13,08,37,9.20
2020,04,13,08,38,9.30
2020,04,13,08,39,9.40
2020,04,13,08,40,9.50
2020,04,13,08,41,9.70
2020,04,13,08,42,9.80
2020,04,13,08,43,10.00
2020,04,13,08,44,10.10
2020,04,13,08,45,10.20
2020,04,13,08,46,10.40
2020,04,13,08,47,10.50
2020,04,13,08,48,10.60
2020,04,13,08,49,10.70
2020,04,13,08,50,10.80
2020,04,13,08,51,10.80
2020,04,13,08,52,10.90
2020,04,13,08,53,11.00
2020,04,13,08,54,11.10
2020,04,13,08,55,11.10
2020,04,13,08,56,11.20
2020,04,13,08,57,11.30
2020,04,13,08,58,11.40
2020,04,13,08,59,11.40
2020,04,13,09,00,11.50
2020,04,13,09,01,11.60
2020,04,13,09,02,11.70
2020,04,13,09,03,11.80
2020,04,13,09,04,11.80
2020,04,13,09,05,11.90
2020,04,13,09,06,12.00
2020,04,13,09,07,12.00
2020,04,13,09,08,12.10
2020,04,13,09,09,12.20
2020,04,13,09,10,12.30
2020,04,13,09,11,12.30
2020,04,13,09,12,12.40
2020,04,13,09,13,12.40
2020,04,13,09,14,12.50
2020,04,13,09,15,12.50
2020,04,13,09,16,12.50
2020,04,13,09,17,12.60
2020,04,13,09,18,12.60
2020,04,13,09,19,12.60
2020,04,13,09,20,12.70
2020,04,13,09,21,12.70
2020,04,13,09,22,12.70
2020,04,13,09,23,12.70
2020,04,13,09,24,12.70
2020,04,13,09,25,12.70
2020,04,13,09,26,12.70
2020,04,13,09,27,12.70
2020,04,13,09,28,12.70
2020,04,13,09,29,12.60
2020,04,13,09,30,12.60
2020,04,13,09,31,12.70
2020,04,13,09,32,12.70
2020,04,13,09,33,12.70
2020,04,13,09,34,12.70
2020,04,13,09,35,12.70
2020,04,13,09,36,12.70
2020,04,13,09,37,12.80
2020,04,13,09,38,12.70
2020,04,13,09,39,12.70
2020,04,13,09,40,12.70
2020,04,13,09,41,12.60
2020,04,13,09,42,12.60
2020,04,13,09,43,12.60
2020,04,13,09,44,12.60
2020,04,13,09,45,12.60
2020,04,13,09,46,12.70
2020,04,13,09,47,12.70
2020,04,13,09,48,12.70
2020,04,13,09,49,12.80
2020,04,13,09,50,12.80
2020,04,13,09,51,12.90
2020,04,13,09,52,12.90
2020,04,13,09,53,12.90
2020,04,13,09,54,12.90
2020,04,13,09,55,12.90
2020,04,13,09,56,12.90
2020,04,13,09,57,13.00
2020,04,13,09,58,13.00
2020,04,13,09,59,13.00
2020,04,13,10,00,12.90
2020,04,13,10,01,12.90
2020,04,13,10,02,12.80
2020,04,13,10,03,12.80
2020,04,13,10,04,12.80
2020,04,13,10,05,12.80
2020,04,13,10,06,12.70
2020,04,13,10,07,12.70
2020,04,13,10,08,12.70
2020,04,13,10,09,12.70
2020,04,13,10,10,12.70
2020,04,13,10,11,12.70
2020,04,13,10,12,12.70
2020,04,13,10,13,12.70
2020,04,13,10,14,12.70
2020,04,13,10,15,12.70
2020,04,13,10,16,12.70
2020,04,13,10,17,12.70
2020,04,13,10,18,12.70
2020,04,13,10,19,12.60
2020,04,13,10,20,12.60
2020,04,13,10,21,12.50
2020,04,13,10,22,12.40
2020,04,13,10,23,12.40
2020,04,13,10,24,12.50
2020,04,13,10,25,12.50
2020,04,13,10,26,12.50
2020,04,13,10,27,12.50
2020,04,13,10,28,12.60
2020,04,13,10,29,12.60
2020,04,13,10,30,12.70
2020,04,13,10,31,12.70
2020,04,13,10,32,12.70
2020,04,13,10,33,12.70
2020,04,13,10,34,12.70
2020,04,13,10,35,12.80
2020,04,13,10,36,12.80
2020,04,13,10,37,12.80
2020,04,13,10,38,12.80
2020,04,13,10,39,12.80
2020,04,13,10,40,12.70
2020,04,13,10,41,12.80
2020,04,13,10,42,12.80
2020,04,13,10,43,12.80
2020,04,13,10,44,12.90
2020,04,13,10,45,13.00
2020,04,13,10,46,13.00
2020,04,13,10,47,13.00
2020,04,13,10,48,13.10
2020,04,13,10,49,13.10
2020,04,13,10,50,13.10
2020,04,13,10,51,13.10
2020,04,13,10,52,13.20
2020,04,13,10,53,13.20
2020,04,13,10,54,13.30
2020,04,13,10,55,13.30
2020,04,13,10,56,13.30
2020,04,13,10,57,13.30
2020,04,13,10,58,13.30
2020,04,13,10,59,13.30
2020,04,13,11,00,13.40
2020,04,13,11,01,13.50
2020,04,13,11,02,13.50
2020,04,13,11,03,13.50
2020,04,13,11,04,13.50
2020,04,13,11,05,13.50
2020,04,13,11,06,13.60
2020,04,13,11,07,13.60
2020,04,13,11,08,13.60
2020,04,13,11,09,13.60
2020,04,13,11,10,13.70
2020,04,13,11,11,13.70
2020,04,13,11,12,13.70
2020,04,13,11,13,13.70
2020,04,13,11,14,13.70
2020,04,13,11,15,13.70
2020,04,13,11,16,13.60
2020,04,13,11,17,13.60
2020,04,13,11,18,13.60
2020,04,13,11,19,13.60
2020,04,13,11,20,13.50
2020,04,13,11,21,13.50
2020,04,13,11,22,13.50
2020,04,13,11,23,13.50
2020,04,13,11,24,13.50
2020,04,13,11,25,13.60
2020,04,13,11,26,13.60
2020,04,13,11,27,13.60
2020,04,13,11,28,13.60
2020,04,13,11,29,13.50
2020,04,13,11,30,13.50
2020,04,13,11,31,13.40
2020,04,13,11,32,13.40
2020,04,13,11,33,13.40
2020,04,13,11,34,13.40
2020,04,13,11,35,13.40
2020,04,13,11,36,13.40
2020,04,13,11,37,13.40
2020,04,13,11,38,13.40
2020,04,13,11,39,13.40
2020,04,13,11,40,13.40
2020,04,13,11,41,13.40
2020,04,13,11,42,13.40
2020,04,13,11,43,13.40
2020,04,13,11,44,13.50
2020,04,13,11,45,13.50
2020,04,13,11,46,13.50
2020,04,13,11,47,13.50
2020,04,13,11,48,13.50
2020,04,13,11,49,13.60
2020,04,13,11,50,13.60
2020,04,13,11,51,13.70
2020,04,13,11,52,13.70
2020,04,13,11,53,13.80
2020,04,13,11,54,13.80
2020,04,13,11,55,13.90
2020,04,13,11,56,14.00
2020,04,13,11,57,14.00
2020,04,13,11,58,14.10
2020,04,13,11,59,14.10
2020,04,13,12,00,14.00
2020,04,13,12,01,14.00
2020,04,13,12,02,14.00
2020,04,13,12,03,13.90
2020,04,13,12,04,14.00
2020,04,13,12,05,14.00
2020,04,13,12,06,14.00
2020,04,13,12,07,14.10
2020,04,13,12,08,14.10
2020,04,13,12,09,14.10
2020,04,13,12,10,14.00
2020,04,13,12,11,14.00
2020,04,13,12,12,13.90
2020,04,13,12,13,13.80
2020,04,13,12,14,13.80
2020,04,13,12,15,13.70
2020,04,13,12,16,13.70
2020,04,13,12,17,13.70
2020,04,13,12,18,13.70
2020,04,13,12,19,13.70
2020,04,13,12,20,13.80
2020,04,13,12,21,13.80
2020,04,13,12,22,13.90
2020,04,13,12,23,13.90
2020,04,13,12,24,14.00
2020,04,13,12,25,14.00
2020,04,13,12,26,14.10
2020,04,13,12,27,14.10
2020,04,13,12,28,14.20
2020,04,13,12,29,14.20
2020,04,13,12,30,14.30
2020,04,13,12,31,14.30
2020,04,13,12,32,14.30
2020,04,13,12,33,14.30
2020,04,13,12,34,14.30
2020,04,13,12,35,14.30
2020,04,13,12,36,14.30
2020,04,13,12,37,14.30
2020,04,13,12,38,14.30
2020,04,13,12,39,14.30
2020,04,13,12,40,14.30
2020,04,13,12,41,14.30
2020,04,13,12,42,14.30
2020,04,13,12,43,14.30
2020,04,13,12,44,14.30
2020,04,13,12,45,14.20
2020,04,13,12,46,14.20
2020,04,13,12,47,14.20
2020,04,13,12,48,14.20
2020,04,13,12,49,14.20
2020,04,13,12,50,14.20
2020,04,13,12,51,14.20
2020,04,13,12,52,14.20
2020,04,13,12,53,14.30
2020,04,13,12,54,14.30
2020,04,13,12,55,14.30
2020,04,13,12,56,14.20
2020,04,13,12,57,14.20
2020,04,13,12,58,14.10
2020,04,13,12,59,14.10
2020,04,13,13,00,14.00
2020,04,13,13,01,14.00
2020,04,13,13,02,14.00
2020,04,13,13,03,14.00
2020,04,13,13,04,14.00
2020,04,13,13,05,14.10
2020,04,13,13,06,14.10
2020,04,13,13,07,14.20
2020,04,13,13,08,14.20
2020,04,13,13,09,14.30
2020,04,13,13,10,14.40
2020,04,13,13,11,14.50
2020,04,13,13,12,14.50
2020,04,13,13,13,14.60
2020,04,13,13,14,14.70
2020,04,13,13,15,14.60
2020,04,13,13,16,14.50
2020,04,13,13,17,14.50
2020,04,13,13,18,14.50
2020,04,13,13,19,14.40
2020,04,13,13,20,14.40
2020,04,13,13,21,14.40
2020,04,13,13,22,14.40
2020,04,13,13,23,14.40
2020,04,13,13,24,14.50
2020,04,13,13,25,14.50
2020,04,13,13,26,14.50
2020,04,13,13,27,14.60
2020,04,13,13,28,14.60
2020,04,13,13,29,14.60
2020,04,13,13,30,14.70
2020,04,13,13,31,14.70
2020,04,13,13,32,14.80
2020,04,13,13,33,14.80
2020,04,13,13,34,14.80
2020,04,13,13,35,14.90
2020,04,13,13,36,14.90
2020,04,13,13,37,15.00
2020,04,13,13,38,15.00
2020,04,13,13,39,15.00
2020,04,13,13,40,15.00
2020,04,13,13,41,15.00
2020,04,13,13,42,15.00
2020,04,13,13,43,15.00
2020,04,13,13,44,15.00
2020,04,13,13,45,15.00
2020,04,13,13,46,14.90
2020,04,13,13,47,14.90
2020,04,13,13,48,14.80
2020,04,13,13,49,14.80
2020,04,13,13,50,14.70
2020,04,13,13,51,14.70
2020,04,13,13,52,14.70
2020,04,13,13,53,14.70
2020,04,13,13,54,14.60
2020,04,13,13,55,14.50
2020,04,13,13,56,14.50
2020,04,13,13,57,14.50
2020,04,13,13,58,14.40
2020,04,13,13,59,14.50
2020,04,13,14,00,14.50
2020,04,13,14,01,14.50
2020,04,13,14,02,14.60
2020,04,13,14,03,14.70
2020,04,13,14,04,14.70
2020,04,13,14,05,14.80
2020,04,13,14,06,14.90
2020,04,13,14,07,14.90
2020,04,13,14,08,15.00
2020,04,13,14,09,15.00
2020,04,13,14,10,15.00
2020,04,13,14,11,15.00
2020,04,13,14,12,15.00
2020,04,13,14,13,15.00
2020,04,13,14,14,15.00
2020,04,13,14,15,15.00
2020,04,13,14,16,15.10
2020,04,13,14,17,15.10
2020,04,13,14,18,15.20
2020,04,13,14,19,15.20
2020,04,13,14,20,15.30
2020,04,13,14,21,15.30
2020,04,13,14,22,15.40
2020,04,13,14,23,15.40
2020,04,13,14,24,15.50
2020,04,13,14,25,15.60
2020,04,13,14,26,15.60
2020,04,13,14,27,15.70
2020,04,13,14,28,15.70
2020,04,13,14,29,15.70
2020,04,13,14,30,15.70
2020,04,13,14,31,15.70
2020,04,13,14,32,15.70
2020,04,13,14,33,15.70
2020,04,13,14,34,15.70
2020,04,13,14,35,15.60
2020,04,13,14,36,15.60
2020,04,13,14,37,15.60
2020,04,13,14,38,15.50
2020,04,13,14,39,15.50
2020,04,13,14,40,15.50
2020,04,13,14,41,15.50
2020,04,13,14,42,15.60
2020,04,13,14,43,15.60
2020,04,13,14,44,15.60
2020,04,13,14,45,15.60
2020,04,13,14,46,15.50
2020,04,13,14,47,15.40
2020,04,13,14,48,15.30
2020,04,13,14,49,15.30
2020,04,13,14,50,15.20
2020,04,13,14,51,15.20
2020,04,13,14,52,15.20
2020,04,13,14,53,15.10
2020,04,13,14,54,15.10
2020,04,13,14,55,15.00
2020,04,13,14,56,15.10
2020,04,13,14,57,15.10
2020,04,13,14,58,15.10
2020,04,13,14,59,15.10
2020,04,13,15,00,15.10
2020,04,13,15,01,15.10
2020,04,13,15,02,15.20
2020,04,13,15,03,15.20
2020,04,13,15,04,15.20
2020,04,13,15,05,15.20
2020,04,13,15,06,15.20
2020,04,13,15,07,15.20
2020,04,13,15,08,15.30
2020,04,13,15,09,15.30
2020,04,13,15,10,15.30
2020,04,13,15,11,15.30
2020,04,13,15,12,15.40
2020,04,13,15,13,15.40
2020,04,13,15,14,15.50
2020,04,13,15,15,15.50
2020,04,13,15,16,15.60
2020,04,13,15,17,15.60
2020,04,13,15,18,15.60
2020,04,13,15,19,15.60
2020,04,13,15,20,15.60
2020,04,13,15,21,15.60
2020,04,13,15,22,15.60
2020,04,13,15,23,15.50
2020,04,13,15,24,15.50
2020,04,13,15,25,15.50
2020,04,13,15,26,15.40
2020,04,13,15,27,15.40
2020,04,13,15,28,15.30
2020,04,13,15,29,15.30
2020,04,13,15,30,15.30
2020,04,13,15,31,15.30
2020,04,13,15,32,15.20
2020,04,13,15,33,15.20
2020,04,13,15,34,15.30
2020,04,13,15,35,15.30
2020,04,13,15,36,15.30
2020,04,13,15,37,15.30
2020,04,13,15,38,15.30
2020,04,13,15,39,15.20
2020,04,13,15,40,15.20
2020,04,13,15,41,15.20
2020,04,13,15,42,15.10
2020,04,13,15,43,15.10
2020,04,13,15,44,15.10
2020,04,13,15,45,15.10
2020,04,13,15,46,15.10
2020,04,13,15,47,15.10
2020,04,13,15,48,15.20
2020,04,13,15,49,15.20
2020,04,13,15,50,15.20
2020,04,13,15,51,15.30
2020,04,13,15,52,15.30
2020,04,13,15,53,15.30
2020,04,13,15,54,15.30
2020,04,13,15,55,15.40
2020,04,13,15,56,15.40
2020,04,13,15,57,15.50
2020,04,13,15,58,15.60
2020,04,13,15,59,15.60
2020,04,13,16,00,15.70
2020,04,13,16,01,15.70
2020,04,13,16,02,15.80
2020,04,13,16,03,15.90
2020,04,13,16,04,16.00
2020,04,13,16,05,16.00
2020,04,13,16,06,16.10
2020,04,13,16,07,16.20
2020,04,13,16,08,16.30
2020,04,13,16,09,16.30
2020,04,13,16,10,16.40
2020,04,13,16,11,16.50
2020,04,13,16,12,16.50
2020,04,13,16,13,16.60
2020,04,13,16,14,16.60
2020,04,13,16,15,16.60
2020,04,13,16,16,16.60
2020,04,13,16,17,16.60
2020,04,13,16,18,16.60
2020,04,13,16,19,16.60
2020,04,13,16,20,16.60
2020,04,13,16,21,16.60
2020,04,13,16,22,16.50
2020,04,13,16,23,16.50
2020,04,13,16,24,16.40
2020,04,13,16,25,16.40
2020,04,13,16,26,16.30
2020,04,13,16,27,16.20
2020,04,13,16,28,16.20
2020,04,13,16,29,16.10
2020,04,13,16,30,16.10
2020,04,13,16,31,16.00
2020,04,13,16,32,16.00
2020,04,13,16,33,16.00
2020,04,13,16,34,15.90
2020,04,13,16,35,15.90
2020,04,13,16,36,15.90
2020,04,13,16,37,15.80
2020,04,13,16,38,15.80
2020,04,13,16,39,15.80
2020,04,13,16,40,15.90
2020,04,13,16,41,15.90
2020,04,13,16,42,15.90
2020,04,13,16,43,16.00
2020,04,13,16,44,16.10
2020,04,13,16,45,16.10
2020,04,13,16,46,16.10
2020,04,13,16,47,16.10
2020,04,13,16,48,16.10
2020,04,13,16,49,16.10
2020,04,13,16,50,16.10
2020,04,13,16,51,16.00
2020,04,13,16,52,16.00
2020,04,13,16,53,16.00
2020,04,13,16,54,16.00
2020,04,13,16,55,16.10
2020,04,13,16,56,16.10
2020,04,13,16,57,16.20
2020,04,13,16,58,16.20
2020,04,13,16,59,16.30
2020,04,13,17,00,16.40
2020,04,13,17,01,16.50
2020,04,13,17,02,16.50
2020,04,13,17,03,16.60
2020,04,13,17,04,16.60
2020,04,13,17,05,16.60
2020,04,13,17,06,16.60
2020,04,13,17,07,16.70
2020,04,13,17,08,16.70
2020,04,13,17,09,16.80
2020,04,13,17,10,16.80
2020,04,13,17,11,16.80
2020,04,13,17,12,16.80
2020,04,13,17,13,16.90
2020,04,13,17,14,16.90
2020,04,13,17,15,17.00
2020,04,13,17,16,17.10
2020,04,13,17,17,17.20
2020,04,13,17,18,17.40
2020,04,13,17,19,17.50
2020,04,13,17,20,17.60
2020,04,13,17,21,17.70
2020,04,13,17,22,17.80
2020,04,13,17,23,17.80
2020,04,13,17,24,17.80
2020,04,13,17,25,17.80
2020,04,13,17,26,17.80
2020,04,13,17,27,17.80
2020,04,13,17,28,17.80
2020,04,13,17,29,17.80
2020,04,13,17,30,17.80
2020,04,13,17,31,17.80
2020,04,13,17,32,17.70
2020,04,13,17,33,17.60
2020,04,13,17,34,17.50
2020,04,13,17,35,17.40
2020,04,13,17,36,17.30
2020,04,13,17,37,17.20
2020,04,13,17,38,17.00
2020,04,13,17,39,16.80
2020,04,13,17,40,16.70
2020,04,13,17,41,16.50
2020,04,13,17,42,16.40